Tracking 20037 objects as of 17-Nov-2019
Live streaming from Space Station
objects crossing your sky now

COSMOS 1375 DEB

Track COSMOS 1375 DEB now!
10-day predictions


NORAD ID: 16380
Int'l Code: 1982-055U
Perigee: 988.7 km
Apogee: 1,069.0 km
Inclination: 65.8 °
Period: 105.6 minutes
Semi major axis: 7399 km
RCS: 0.0936 m2 (small)
Launch date: June 6, 1982
Source: Commonwealth of Independent States (former USSR) (CIS)
Launch site: PLESETSK MISSILE AND SPACE COMPLEX (PKMTR)

Note: This is SATELLITE DEBRIS
aabbcc
Your satellite tracking list
Your tracking list is empty




NASA's NSSDC Master Catalog

Two Line Element Set (TLE):
1 16380U 82055U   19320.82670976 -.00000104 +00000-0 -32612-4 0  9993
2 16380 065.8351 082.6014 0054309 205.4033 314.2474 13.63854117696585
Source of the keplerian elements: AFSPC